Regional Weather Roundup
Issued by NWS

Home | Current Version | Previous Version | Text Only | Print | Product List | Glossary On
Versions: 1 2 3 4 5 6 7 8 9 10 11 12 13 14 15 16 17 18 19 20 21 22 23 24 25 26 27 28 29 30 31 32 33 34 35 36 37 38 39 40 41 42 43 44 45 46 47 48 49 50
000
ASUS44 KJAN 041810
RWRMS

MISSISSIPPI HOURLY WEATHER ROUNDUP
NATIONAL WEATHER SERVICE JACKSON MS
100 PM CDT TUE AUG 04 2015

NOTE: "FAIR: INDICATES FEW OR NO CLOUDS BELOW 12,000 FEET WITH NO
SIGNIFICANT WEATHER AND/OR OBSTRUCTIONS TO VISIBILITY.

MSZ001>002-007>008-010>013-018>021-025>028-034>036-041900-
NORTHWEST MISSISSIPPI

CITY           SKY/WX    TMP DP  RH WIND       PRES   REMARKS
CLARKSDALE     FAIR      95  68  41 S7        30.00F HX  99
CLEVELAND      FAIR      94  71  46 SW3       29.98F HX 101
GREENWOOD      SUNNY     94  65  38 CALM      29.99F HX  96
6HR MIN TEMP:  72; 6HR MAX TEMP:  94;

GREENVILLE     SUNNY     96  68  39 SE6       29.97F HX 101
6HR MIN TEMP:  73; 6HR MAX TEMP:  96;

OLIVE BRANCH   PTSUNNY   97  66  36 SW7       30.01S HX 100
OXFORD         FAIR      93  64  38 MISG      30.03S HX  95
TUNICA         CLEAR     93  68  43 S7        30.00F HX  97
$$

MSZ003>006-009-014>017-022>024-029>033-037>039-041900-
NORTHEAST MISSISSIPPI

CITY           SKY/WX    TMP DP  RH WIND       PRES   REMARKS
COLUMBUS AFB   CLOUDY    93  68  44 NW6       29.99F HX  97
6HR MIN TEMP:  72; 6HR MAX TEMP:  94;

CORINTH        FAIR      95  68  41 NE6       30.00S HX  99
GOLDN TRIANGLE PTSUNNY   99  64  32 CALM      29.99F HX 101
STARKVILLE     MOCLDY    93  66  40 CALM      30.00F HX  96
TUPELO         SUNNY     95  68  41 SW6       30.00F HX  99
6HR MIN TEMP:  75; 6HR MAX TEMP:  96;

$$

MSZ040-058-041900-
CENTRAL MISSISSIPPI

CITY           SKY/WX    TMP DP  RH WIND       PRES   REMARKS
JACKSON INTL   MOSUNNY   98  57  25 N5        29.98F HX  97
6HR MIN TEMP:  74; 6HR MAX TEMP:  99;

JACKSON HAWKNS SUNNY     98  58  26 CALM      29.99F HX  97
6HR MIN TEMP:  74; 6HR MAX TEMP:  98;

MERIDIAN KEY   SUNNY     96  58  27 CALM      29.99F HX  95
6HR MIN TEMP:  69; 6HR MAX TEMP:  97;

MERIDIAN NAS   MOSUNNY   96  59  29 VRB6      30.00F HX  95
6HR MIN TEMP:  69; 6HR MAX TEMP:  97;

VICKSBURG      SUNNY     97  72  44 E7        29.98F HX 105
6HR MIN TEMP:  73; 6HR MAX TEMP:  97;

$$

MSZ059>079-041900-
SOUTH MISSISSIPPI

CITY           SKY/WX    TMP DP  RH WIND       PRES   REMARKS
BROOKHAVEN     FAIR      93  66  40 SW6       30.01F HX  96
HATTIESBURG    MOSUNNY   94  68  42 S5        30.00F HX  98
6HR MIN TEMP:  74; 6HR MAX TEMP:  94;

MCCOMB         MOSUNNY   93  70  46 SE9       30.00F HX  99
6HR MIN TEMP:  72; 6HR MAX TEMP:  94;

NATCHEZ        MOSUNNY   93  73  52 SW5       29.99F HX 102
6HR MIN TEMP:  75; 6HR MAX TEMP:  93;

PINE BELT      SUNNY     93  66  40 SW6       30.02S HX  96
6HR MIN TEMP:  72; 6HR MAX TEMP:  93;

$$

MSZ080>082-041900-
COASTAL MISSISSIPPI

CITY           SKY/WX    TMP DP  RH WIND       PRES   REMARKS
BAY ST LOUIS   PTSUNNY   90  72  55 SW9       30.01S HX  96
BILOXI         MOSUNNY   89  77  68 SW9       30.01F HX 101
6HR MIN TEMP:  79; 6HR MAX TEMP:  89;

PASCAGOULA     MOSUNNY   90  75  61 SW9       30.02S HX 100
6HR MIN TEMP:  74; 6HR MAX TEMP:  92;

GULFPORT       MOSUNNY   84  78  82 SW5       30.01F HX  95
6HR MIN TEMP:  77; 6HR MAX TEMP:  90; 6HR PCP:  0.03;

$$



USA.gov is the U.S. government's official web portal to all federal, state and local government web resources and services.